Vorticity
nan nan nan nan nan nan nan nan nan nan nan nan nan nan nan nan nan nan nan nan nan nan nan nan nan nan nan nan nan nan nan nan nan nan nan nan nan nan nan nan nan nan nan
nan 9 7 7 8 8 9 8 8 7 6 5 6 5 6 6 7 10 11 3 1 7 8 9 10 12 13 15 15 14 12 12 10 6 8 8 8 7 6 6 7 8 nan
nan 7 8 7 8 9 9 7 6 6 6 6 5 6 6 6 9 11 10 7 2 -2 1 4 4 5 6 8 10 12 14 12 14 11 7 7 6 8 7 7 7 7 nan
nan 8 9 9 8 7 7 6 7 7 6 6 6 7 7 8 11 8 7 8 7 4 -2 -1 3 3 4 5 5 6 9 12 13 14 12 8 6 6 7 8 7 8 nan
nan 9 8 7 7 7 7 7 7 8 7 6 8 7 6 10 10 7 5 6 6 6 5 1 2 3 2 4 6 6 6 7 11 15 13 13 10 6 6 6 7 7 nan
nan 9 8 7 8 8 7 7 6 8 7 7 9 8 8 11 7 4 5 5 5 5 6 5 6 4 1 2 6 6 7 7 6 9 13 13 14 13 9 8 5 6 nan
nan 9 8 7 7 7 7 7 6 6 7 10 10 8 12 10 5 3 5 6 5 6 6 6 7 6 3 3 6 4 8 10 8 6 8 11 9 14 16 7 5 6 nan
nan 6 6 6 6 6 7 7 8 9 8 8 12 10 10 10 6 5 4 5 5 5 5 5 6 8 8 8 4 5 8 9 10 10 8 8 12 12 13 9 5 6 nan
nan 4 4 6 8 10 10 7 6 8 10 7 8 12 10 7 9 7 5 5 5 7 6 7 7 8 10 10 7 7 5 6 9 11 9 9 9 12 17 13 6 5 nan
nan 9 9 10 12 12 9 7 6 8 9 8 8 8 8 8 8 8 6 6 7 7 9 9 8 9 11 9 9 8 8 6 7 12 11 10 11 15 16 13 7 6 nan
nan 11 9 11 12 10 7 7 7 7 9 9 9 8 9 9 9 8 6 9 8 9 8 7 9 8 7 9 9 6 7 9 10 12 13 9 13 17 23 17 9 9 nan
nan 11 13 13 10 8 7 7 8 7 6 6 7 7 7 8 10 9 8 7 8 8 9 8 8 8 8 9 5 5 9 12 11 12 14 10 11 12 19 23 16 9 nan
nan 11 16 13 8 8 9 8 7 6 5 5 6 7 9 9 9 8 8 8 7 7 8 7 8 8 8 10 6 3 11 16 16 18 13 12 11 9 9 11 15 14 nan
nan 15 18 11 8 7 8 7 6 7 8 7 7 8 8 9 9 9 8 7 7 7 5 8 10 9 8 6 7 10 10 10 20 21 16 14 11 14 12 7 9 8 nan
nan 18 14 7 6 6 5 5 8 9 8 9 10 9 9 9 9 8 8 7 7 7 6 10 8 8 8 8 7 10 4 4 16 23 17 8 10 13 14 11 3 4 nan
nan 15 8 4 3 4 7 9 9 9 9 9 9 9 8 8 8 7 8 9 9 8 8 8 8 9 9 9 8 10 7 3 6 16 19 13 7 14 13 10 11 6 nan
nan 14 6 2 6 10 9 10 8 9 9 9 9 8 7 7 6 8 9 8 8 8 9 5 8 10 11 11 10 11 12 6 -0 6 15 18 15 13 14 11 10 11 nan
nan 9 9 9 8 9 12 10 10 10 9 9 9 7 6 7 7 9 9 9 9 9 9 8 10 9 9 13 13 14 11 6 5 -1 3 9 16 17 10 10 10 8 nan
nan 7 10 10 10 11 11 10 11 11 10 8 8 8 9 9 10 9 9 11 10 10 10 11 9 10 10 9 15 15 11 11 9 4 4 2 5 13 20 13 5 7 nan
nan 10 9 12 12 12 13 13 10 9 9 8 8 8 10 10 8 9 12 11 9 9 9 10 11 10 10 9 15 18 14 10 7 10 8 4 5 6 13 20 9 10 nan
nan 10 11 12 14 14 12 13 11 9 9 10 11 10 9 7 10 13 10 7 9 11 10 10 10 10 8 9 9 13 15 10 9 11 10 9 7 7 9 13 12 10 nan
nan 9 11 13 12 9 9 12 11 11 10 11 10 10 10 11 11 11 10 9 10 9 8 9 10 10 9 9 9 7 10 12 11 8 8 8 10 8 6 4 8 14 nan
nan 11 14 11 8 8 8 7 9 9 9 9 10 11 11 11 10 10 11 12 12 12 12 12 11 8 9 10 11 11 8 8 8 4 9 10 10 9 8 5 9 5 nan
nan 15 14 11 7 5 7 6 7 10 9 9 10 10 9 9 9 6 11 13 14 14 16 14 11 8 7 8 8 9 10 12 11 9 9 8 7 8 10 9 6 7 nan
nan 16 13 10 8 5 6 8 10 11 9 10 10 9 10 8 4 10 14 12 12 14 12 12 12 11 11 11 9 10 15 11 9 11 11 10 8 10 10 12 11 9 nan
nan nan nan nan nan nan nan nan nan nan nan nan nan nan nan nan nan nan nan nan nan nan nan nan nan nan nan nan nan nan nan nan nan nan nan nan nan nan nan nan nan nan nan
CAPE
185 33 0 0 0 0 0 0 0 0 0 0 0 0 0 0 0 0 0 0 0 0 0 6 18 56 101 169 351 483 555 364 188 101 173 298 491 481 315 206 179 176 155
21 0 0 0 0 0 0 0 0 0 0 0 0 0 0 0 0 0 0 0 0 0 0 0 0 0 4 0 2 48 144 399 229 103 118 135 181 339 290 184 127 206 216
0 0 0 0 0 0 0 0 0 0 0 0 0 0 0 0 0 0 0 0 0 0 0 0 0 0 0 0 0 0 2 113 187 344 170 257 183 220 256 160 113 163 161
0 0 0 0 0 0 0 0 0 0 0 0 0 0 0 0 0 0 0 0 0 0 0 0 0 0 0 0 0 0 0 1 17 164 258 215 214 208 221 139 124 167 153
0 0 0 0 0 0 0 0 0 0 0 0 0 0 0 0 0 0 0 0 0 0 0 0 0 0 0 0 0 0 0 0 2 23 203 300 251 220 246 159 165 179 79
0 0 0 0 0 0 0 0 0 0 0 0 0 0 0 0 0 0 0 0 0 0 0 0 0 0 0 0 0 0 0 0 0 0 23 239 296 338 235 251 144 94 13
0 0 0 0 0 0 0 0 0 0 0 0 0 0 0 0 0 0 0 0 0 0 0 0 0 0 0 0 0 0 0 0 0 0 0 1 146 290 344 244 115 28 22
0 0 0 0 0 0 0 0 0 0 0 0 0 0 0 0 0 0 0 0 0 0 0 0 0 0 0 0 0 0 0 0 0 0 0 0 0 199 350 296 90 33 17
0 0 0 0 0 0 0 0 0 0 0 0 0 0 0 0 1 0 0 0 0 0 0 0 0 0 0 0 0 0 0 0 0 0 2 0 0 6 203 322 193 53 32
0 0 0 0 0 0 0 0 0 0 0 0 0 0 0 2 0 0 0 0 0 0 0 9 0 0 3 6 1 0 0 0 0 0 10 6 2 0 163 230 181 26 16
0 0 0 0 0 0 0 0 0 0 0 0 0 0 0 0 0 1 0 0 0 0 2 1 8 0 0 0 4 0 0 0 0 0 18 26 28 23 166 187 129 0 0
0 0 0 0 0 0 0 0 0 0 0 0 0 0 0 0 0 6 5 0 0 0 0 0 1 0 0 0 1 0 0 0 0 0 62 48 58 54 44 108 65 33 5
0 0 0 0 0 0 0 0 0 0 0 0 0 0 0 0 0 2 4 1 1 0 0 0 0 0 0 0 30 1 1 0 0 61 93 59 56 44 25 17 14 85 103
0 0 0 0 0 0 0 0 0 0 0 0 0 3 3 10 20 17 4 19 10 1 0 1 1 5 4 0 0 38 34 14 7 61 72 85 39 42 56 2 0 0 1
0 0 0 0 0 0 0 0 0 1 0 8 13 24 20 17 2 0 0 12 30 32 2 0 0 2 6 2 4 4 80 0 0 25 16 0 0 4 53 41 0 0 0
0 0 0 0 1 1 0 0 1 4 9 27 20 26 2 0 0 0 0 2 4 10 11 1 1 4 3 1 3 0 61 3 0 0 0 13 4 6 44 1 42 1 0
0 0 0 1 4 0 0 5 3 0 2 25 7 0 0 0 0 0 0 1 3 9 20 2 5 13 21 24 3 26 49 28 5 0 0 2 1 0 4 0 0 0 0
0 0 0 0 4 0 0 0 0 0 1 0 0 0 0 0 0 3 5 7 13 21 27 14 17 29 33 40 25 34 56 28 11 3 0 0 0 0 0 0 0 0 0
0 0 0 1 0 0 0 0 0 0 0 0 0 0 0 0 1 9 15 17 13 13 19 31 19 17 29 39 44 25 50 44 1 0 0 0 0 0 0 0 0 0 0
0 0 1 0 0 0 0 0 0 0 0 0 0 0 0 4 9 15 26 43 38 28 15 18 24 18 26 28 41 53 58 43 14 0 0 0 0 0 0 0 0 0 1
0 1 0 0 0 0 0 0 0 0 0 0 0 0 1 6 7 9 16 18 16 16 22 32 19 22 28 30 70 35 57 45 21 0 0 0 0 0 0 8 1 0 0
4 0 0 0 0 0 0 0 0 0 0 0 0 0 0 0 0 2 3 4 10 20 33 30 58 30 20 28 28 34 29 47 38 9 0 0 0 0 0 0 0 0 0
3 2 0 0 0 0 0 0 0 0 0 0 0 0 0 0 1 5 3 4 15 18 21 41 50 40 32 32 37 44 29 21 14 16 2 1 0 0 0 0 0 2 0
0 0 0 0 0 0 0 0 0 0 0 0 0 0 1 2 4 10 20 27 12 9 19 22 37 37 33 33 23 44 26 20 16 7 7 4 2 3 0 0 0 0 2
0 0 0 0 0 0 0 0 0 0 0 0 0 2 3 3 4 17 17 24 12 9 8 8 11 9 9 8 14 26 52 34 34 10 8 17 4 10 9 0 0 0 0
0 0 0 0 0 0 0 0 0 0 1 1 1 1 0 6 7 7 14 23 16 27 14 18 21 17 17 19 3 14 19 57 82 33 22 28 19 13 11 4 0 0 0